COSMOS 1823 DEB, 39830

Orbit data source: Space-Track

COSMOS 1823 DEB, 39830 is space debris in LEO originally from a launch on Fri, 20 Feb 1987 UTC launched from the Plesetsk Missile And Space Complex (PKMTR). Debris objects in space refer to the collection of defunct objects orbiting the Earth. Examples of debris include non-operational satellites, rocket bodies, and fragments generated from explosions, collisions, or faulty payload assembly.

Loading next visibility...
Identifier
39830, 1987-020FE
Orbit
LEO
Country
Flag of CISCIS
Related business
Manufacturer
Unknown
Mission
Spacecraft
Bus & Motor
Unknown
Mass
Unknown
Launch date (UTC)
1987-02-20 (39 years ago)
Launch vehicle
Unknown
Launch site
Plesetsk Missile And Space Complex (PKMTR)
Object type
Payload
Rocket body
Debris
Shape & HBR
Unknown shape, 0.1 m
Radar Cross Section
Medium (>0.1 m² and <1 m²)

Expand to show TLE details & history
Last TLE update: 6 days ago

TLE from 6 days ago
0 COSMOS 1823 DEB
1 39830U 87020FE  26168.05087202  .00000146  00000-0  11112-2 0  9996
2 39830  73.5972 280.8121 0033060 117.8997 242.5405 12.47539583547470
Epoch: 2026-06-17T01:13Z
TLE epoch observation values (Epoch: 2026-06-17T01:13:15.342Z)
Latitude
Longitude
-2.81594°
Altitude
1,489.198 km
Speed
7.114 km/s
True Right ascension
18h 43m 14s
True Declination
0° 00' 00"
Sunlit
Object was in full shadow at epoch
Visualization orbit readout
Latitude
Unknown
Longitude
Unknown
Altitude
Unknown
Speed
Unknown
Apparent Right ascension
Unknown
Apparent Declination
Unknown
Sunlit
N/A
Visualization observer readout
Local Sidereal Time
08:10:58
Azimuth
Unknown
Elevation
Unknown
Doppler factor
Unknown
Orbital elements
Apogee altitude
1,498.63 km
Perigee altitude
1,446.72 km
Semi-major axis
7,850.812 km
Eccentricity
0.00331
Inclination
73.5972°
RAAN
280.8121°
Arg. of periapsis
117.8997°
True anomaly
242.20498°
Mean anomaly
242.5405°
Eccentric anomaly
242.37268°
Mean motion
3.12012 °/min
Orbital period
115.38 mins
BSTAR
0.0011112
Loading maneuver chart data...
Computing Atmospheric mass density...

Documentation

Showing up to 5 results
|